User: anonymous   Login
Location: Kosice
(0.0000°N, 21.2500°E)
Time: 11:54:28
(UTC+02:00)
Language:

ARIANE 5 R/B - Orbit

View from above orbital plane
View from above orbital plane
View from above satellite
View from above satellite

Ground track
Ground track

The orbit data is extracted from the following two-line orbital elements,

1 33057U 08030C   21100.49338508  .00000573  00000-0  20294-3 0  9998
2 33057   1.2030 164.2227 7131556 304.0834   7.7098  2.45662973111514
Epoch (UTC): 10 April 2021 11:50:28
Eccentricity: 0.7131556
inclination: 1.2030°
perigee height: 277 km
apogee height: 33368 km
right ascension of ascending node: 164.2227°
argument of perigee: 304.0834°
revolutions per day: 2.45662973
mean anomaly at epoch: 7.7098°
orbit number at epoch: 11151

The dashed part of the orbit path shows where the satellite is in the earth's shadow,  

DLR